GW2968 Weather Reports


Display with metric or nautical units.
time (UTC)temp
F
wind
direction
speed
MPH
gust
MPH
rain 1hr
in
rain 24hr
in
rain mn
in
humidity
%
barometer
mb
20260507040056 43 279 2.0 4.0 0.00 0.22 0.00 100 1010.8
20260507034602 43 292 3.0 4.0 0.00 0.22 0.00 100 1010.7
20260507033100 43 295 1.0 4.0 0.00 0.22 0.00 100 1010.7
20260507031537 43 291 3.0 5.0 0.00 0.22 0.00 100 1010.6
20260507030032 43 309 3.0 6.0 0.00 0.22 0.00 100 1010.6
20260507024530 43 277 3.0 4.0 0.00 0.22 0.00 100 1010.5
20260507023025 43 300 1.0 4.0 0.00 0.22 0.00 100 1010.5
20260507021519 43 317 2.0 4.0 0.00 0.22 0.00 100 1010.4
20260507020017 43 310 2.0 4.0 0.00 0.22 0.00 100 1010.3
20260507014519 43 334 2.0 7.0 0.00 0.22 0.00 100 1010.2
20260507013012 43 309 1.0 4.0 0.00 0.22 0.00 100 1010.1
20260507011506 43 309 2.0 4.0 0.00 0.22 0.00 100 1010.0
20260507010003 43 311 2.0 4.0 0.00 0.23 0.00 100 1009.9
20260507004557 43 317 1.0 4.0 0.00 0.23 0.00 100 1009.7
20260507003053 43 333 1.0 6.0 0.00 0.23 0.00 100 1009.6
20260507001607 43 314 0.0 3.0 0.00 0.23 0.00 100 1009.6
20260507000047 43 317 0.0 2.0 0.00 0.24 0.00 100 1009.5
20260506234552 43 317 1.0 4.0 0.00 0.24 0.00 100 1009.6
20260506233040 43 316 1.0 3.0 0.00 0.24 0.00 100 1009.6
20260506231537 43 315 0.0 4.0 0.00 0.24 0.00 100 1009.5
20260506230030 43 305 1.0 3.0 0.00 0.31 0.00 100 1009.5
20260506224529 44 307 1.0 4.0 0.00 0.31 0.00 100 1009.2
20260506223022 44 349 4.0 8.0 0.00 0.31 0.00 100 1009.0
20260506221518 44 315 3.0 6.0 0.00 0.31 0.00 100 1009.0
20260506220029 44 316 0.0 4.0 0.00 0.51 0.31 100 1008.9
20260506214510 44 341 2.0 5.0 0.00 0.51 0.31 100 1008.9
20260506213005 44 306 2.0 4.0 0.00 0.51 0.31 100 1008.8
20260506211505 44 295 3.0 6.0 0.00 0.51 0.31 100 1008.7
20260506210059 44 311 2.0 8.0 0.00 0.57 0.31 100 1008.6
20260506204555 44 327 3.0 6.0 0.00 0.57 0.31 100 1008.6
20260506203058 44 320 1.0 3.0 0.00 0.57 0.31 100 1008.5
20260506201547 44 319 0.0 5.0 0.00 0.57 0.31 100 1008.3
20260506200045 44 320 3.0 8.0 0.00 0.61 0.31 100 1008.2
20260506194545 44 323 3.0 5.0 0.00 0.61 0.31 100 1008.1
20260506193043 44 304 5.0 7.0 0.00 0.61 0.31 100 1008.0
20260506191533 44 337 3.0 7.0 0.00 0.61 0.31 100 1007.8
20260506190038 44 327 3.0 7.0 0.00 0.65 0.31 100 1007.7
20260506184532 45 308 3.0 6.0 0.00 0.65 0.31 100 1007.4
20260506183029 45 324 2.0 4.0 0.00 0.65 0.31 100 1007.2
20260506181523 45 325 0.0 3.0 0.00 0.65 0.31 100 1007.1
20260506180012 45 325 1.0 4.0 0.00 0.69 0.31 100 1007.0
20260506174508 45 323 3.0 6.0 0.00 0.69 0.31 100 1006.9
20260506173004 46 304 3.0 6.0 0.00 0.69 0.31 100 1006.7
20260506171606 46 324 0.0 5.0 0.00 0.69 0.31 100 1006.6
20260506170110 46 301 2.0 5.0 0.00 0.75 0.31 100 1006.5
20260506170000 46 300 2.0 5.0 0.00 0.75 0.31 100 1006.5
20260506164557 46 314 2.0 4.0 0.00 0.75 0.31 100 1006.5
20260506163054 47 324 2.0 5.0 0.00 0.75 0.31 100 1006.3
20260506161549 47 5 2.0 6.0 0.01 0.75 0.31 100 1006.3
20260506160058 47 309 3.0 8.0 0.01 0.79 0.31 100 1006.1
20260506154541 47 309 3.0 9.0 0.02 0.79 0.31 100 1006.1
20260506153036 47 336 5.0 9.0 0.02 0.79 0.31 100 1006.0
20260506151533 47 336 4.0 11.0 0.04 0.78 0.30 100 1005.8
20260506150026 48 333 4.0 7.0 0.05 0.78 0.30 100 1005.7
20260506144521 48 303 3.0 7.0 0.06 0.78 0.30 100 1005.6
20260506143017 48 311 4.0 9.0 0.05 0.76 0.28 100 1005.6
20260506141512 49 292 5.0 8.0 0.05 0.76 0.28 100 1005.5
20260506140012 49 285 4.0 8.0 0.03 0.73 0.25 100 1005.4
20260506134507 49 312 3.0 5.0 0.02 0.72 0.24 100 1005.2
20260506133004 49 320 3.0 5.0 0.03 0.72 0.24 100 1005.1
20260506131604 49 312 3.0 6.0 0.03 0.71 0.23 100 1005.1
20260506130056 50 312 3.0 6.0 0.04 0.71 0.22 100 1005.0
20260506124555 50 319 4.0 7.0 0.05 0.71 0.22 100 1005.0
20260506123046 49 329 4.0 8.0 0.04 0.70 0.21 100 1004.9
20260506121543 50 330 2.0 5.0 0.02 0.69 0.20 100 1004.9
20260506120041 50 343 4.0 9.0 0.02 0.68 0.19 100 1004.8
20260506114536 50 317 4.0 6.0 0.02 0.67 0.18 100 1004.6
20260506113032 50 335 0.0 3.0 0.01 0.66 0.17 100 1004.6
20260506111528 50 337 0.0 5.0 0.01 0.66 0.17 100 1004.5
20260506110025 50 317 1.0 4.0 0.00 0.65 0.17 100 1004.6
20260506104521 50 321 4.0 7.0 0.00 0.65 0.17 100 1004.5
20260506103025 50 261 1.0 4.0 0.00 0.65 0.17 100 1004.4
20260506101512 51 269 2.0 7.0 0.00 0.65 0.17 100 1004.3
20260506100007 51 332 4.0 7.0 0.00 0.65 0.17 100 1004.2
20260506094504 51 261 0.0 5.0 0.01 0.65 0.17 100 1004.2
20260506093059 51 213 2.0 5.0 0.03 0.65 0.17 100 1004.2
20260506091555 50 257 2.0 5.0 0.05 0.65 0.17 100 1004.1
20260506090053 50 226 0.0 4.0 0.05 0.65 0.17 100 1004.1
20260506084548 50 207 0.0 3.0 0.04 0.65 0.16 100 1004.1
20260506083044 49 234 0.0 3.0 0.02 0.63 0.14 100 1004.0
20260506081540 50 260 1.0 2.0 0.01 0.61 0.12 100 1003.9
20260506073030 50 264 0.0 2.0 0.01 0.61 0.12 100 1003.7
20260506071525 49 264 0.0 2.0 0.00 0.60 0.11 100 1003.7
20260506061513 48 266 0.0 3.0 0.01 0.60 0.11 100 1003.7
20260506044604 48 287 0.0 2.0 0.01 0.57 0.09 100 1003.7
20260506043047 48 287 0.0 2.0 0.00 0.56 0.09 100 1003.6
20260506041542 48 287 0.0 1.0 0.00 0.56 0.09 100 1003.6